Weather History for Ocala, FL

Change the Weather History Date:

Monday, October 28, 2013

  Actual Average Record
Temperature  
Mean Temperature 64 °F -  
Max Temperature 82 °F 78 °F 89 °F (2010)
Min Temperature 46 °F 57 °F 39 °F (2008)
Degree Days  
Heating Degree Days 1    
Growing Degree Days 14 (Base 50)    
Moisture  
Dew Point 49 °F    
Average Humidity 66    
Maximum Humidity 82    
Minimum Humidity 32    
Precipitation  
Precipitation 0.00 in - - ()
Sea Level Pressure  
Sea Level Pressure 30.17 in    
Wind  
Wind Speed 3 mph (NE)    
Max Wind Speed 8 mph    
Max Gust Speed -    
Visibility 10 miles    
Events      
Averages and records for this station are not official NWS values.
T = Trace of Precipitation, MM = Missing Value Source: NWS Daily Summary

Daily Weather History Graph

Daily Weather History Graph

Search for Another Location

Airport:

Trip Planner

Search our weather history database for the weather conditions in past years. The results will help you decide how hot, cold, wet, or windy it might be!

Date:

Astronomy

Oct. 28, 2013 Rise Set
Actual Time 7:38 AM EDT 6:45 PM EDT
Civil Twilight 7:14 AM EDT 7:10 PM EDT
Nautical Twilight 6:46 AM EDT 7:38 PM EDT
Astronomical Twilight 6:18 AM EDT 8:05 PM EDT
Moon 1:57 AM EDT 3:02 PM EDT
Length of Visible Light 11h 55m
Length of Day
11h 07m
Waning Crescent, 34% of the Moon is Illuminated
Oct 28
Waning Crescent
Nov 3
New
Nov 10
First Quarter
Nov 17
Full
Nov 25
Last Quarter

Hourly Weather History & Observations

Time (EDT) Temp. Dew Point Humidity Pressure Visibility Wind Dir Wind Speed Gust Speed Precip Events Conditions
12:15 AM 53.6 °F 44.6 °F 72% 30.15 in 10.0 mi North 3.5 mph - N/A   Clear
12:35 AM 53.6 °F 44.6 °F 72% 30.15 in 10.0 mi North 4.6 mph - N/A   Clear
12:55 AM 51.8 °F 44.6 °F 76% 30.15 in 10.0 mi Calm Calm - N/A   Clear
1:15 AM 51.8 °F 42.8 °F 71% 30.14 in 10.0 mi Calm Calm - N/A   Clear
1:35 AM 51.8 °F 42.8 °F 71% 30.14 in 10.0 mi NNE 3.5 mph - N/A   Clear
1:55 AM 51.8 °F 42.8 °F 71% 30.14 in 10.0 mi North 4.6 mph - N/A   Clear
2:15 AM 50.0 °F 42.8 °F 76% 30.13 in 10.0 mi NNE 3.5 mph - N/A   Clear
2:35 AM 51.8 °F 42.8 °F 71% 30.13 in 10.0 mi NNE 3.5 mph - N/A   Clear
2:55 AM 51.8 °F 42.8 °F 71% 30.14 in 10.0 mi North 3.5 mph - N/A   Clear
3:15 AM 51.8 °F 42.8 °F 71% 30.13 in 10.0 mi Calm Calm - N/A   Clear
3:35 AM 50.0 °F 42.8 °F 76% 30.13 in 10.0 mi North 3.5 mph - N/A   Clear
3:55 AM 50.0 °F 42.8 °F 76% 30.13 in 10.0 mi Calm Calm - N/A   Clear
4:15 AM 50.0 °F 42.8 °F 76% 30.13 in 10.0 mi North 4.6 mph - N/A   Clear
4:35 AM 50.0 °F 42.8 °F 76% 30.14 in 10.0 mi Calm Calm - N/A   Clear
4:55 AM 48.2 °F 42.8 °F 82% 30.13 in 7.0 mi Calm Calm - N/A   Clear
5:15 AM 48.2 °F 42.8 °F 82% 30.14 in 10.0 mi Calm Calm - N/A   Clear
5:35 AM 48.2 °F 41.0 °F 76% 30.14 in 7.0 mi Calm Calm - N/A   Clear
5:55 AM 48.2 °F 41.0 °F 76% 30.15 in 3.0 mi North 3.5 mph - N/A   Clear
6:15 AM 48.2 °F 41.0 °F 76% 30.15 in 5.0 mi Calm Calm - N/A   Clear
6:35 AM 48.2 °F 41.0 °F 76% 30.15 in 8.0 mi Calm Calm - N/A   Clear
6:50 AM 46.4 °F 41.0 °F 81% 30.15 in 7.0 mi Calm Calm - N/A   Clear
7:50 AM 46.4 °F 41.0 °F 81% 30.17 in 10.0 mi Calm Calm - N/A   Clear
8:50 AM 53.6 °F 46.4 °F 77% 30.19 in 10.0 mi ENE 3.5 mph - N/A   Clear
9:50 AM 66.2 °F 53.6 °F 64% 30.21 in 10.0 mi NE 3.5 mph - N/A   Clear
10:50 AM 71.6 °F 55.4 °F 57% 30.22 in 10.0 mi ENE 5.8 mph - N/A   Clear
11:50 AM 75.2 °F 55.4 °F 50% 30.22 in 10.0 mi NE 4.6 mph - N/A   Clear
12:50 PM 77.0 °F 48.2 °F 36% 30.21 in 10.0 mi East 4.6 mph - N/A   Clear
1:50 PM 78.8 °F 51.8 °F 39% 30.18 in 10.0 mi ENE 8.1 mph - N/A   Clear
2:50 PM 80.6 °F 48.2 °F 32% 30.16 in 10.0 mi North 3.5 mph - N/A   Partly Cloudy
3:50 PM 82.4 °F 50.0 °F 32% 30.15 in 10.0 mi North 4.6 mph - N/A   Partly Cloudy
4:50 PM 80.6 °F 51.8 °F 37% 30.15 in 10.0 mi NE 5.8 mph - N/A   Partly Cloudy
5:50 PM 80.6 °F 51.8 °F 37% 30.16 in 10.0 mi NNE 5.8 mph - N/A   Clear
6:50 PM 75.2 °F 53.6 °F 47% 30.16 in 10.0 mi NNE 3.5 mph - N/A   Clear
7:55 PM 71.6 °F 57.2 °F 60% 30.18 in 10.0 mi ENE 5.8 mph - N/A   Clear
8:15 PM 71.6 °F 57.2 °F 60% 30.19 in 10.0 mi ENE 4.6 mph - N/A   Clear
8:35 PM 69.8 °F 57.2 °F 64% 30.19 in 10.0 mi ENE 5.8 mph - N/A   Clear
8:55 PM 69.8 °F 57.2 °F 64% 30.20 in 10.0 mi ENE 3.5 mph - N/A   Clear
9:15 PM 69.8 °F 57.2 °F 64% 30.21 in 10.0 mi ENE 6.9 mph - N/A   Clear
9:35 PM 68.0 °F 57.2 °F 68% 30.21 in 10.0 mi ENE 4.6 mph - N/A   Clear
9:55 PM 66.2 °F 57.2 °F 73% 30.22 in 10.0 mi NE 3.5 mph - N/A   Clear
10:15 PM 66.2 °F 57.2 °F 73% 30.22 in 10.0 mi NE 3.5 mph - N/A   Clear
10:35 PM 66.2 °F 55.4 °F 68% 30.22 in 10.0 mi NE 3.5 mph - N/A   Clear
10:55 PM 64.4 °F 55.4 °F 73% 30.22 in 10.0 mi Calm Calm - N/A   Clear
11:15 PM 64.4 °F 55.4 °F 73% 30.23 in 10.0 mi NNE 3.5 mph - N/A   Clear
11:35 PM 64.4 °F 55.4 °F 73% 30.23 in 10.0 mi NNE 3.5 mph - N/A   Clear
11:55 PM 62.6 °F 53.6 °F 72% 30.23 in 10.0 mi Calm Calm - N/A   Clear